DW0805 Weather Reports


time (UTC)temp
F
wind
direction
speed
knots
gust
knots
rain 1hr
in
rain 24hr
in
rain mn
in
humidity
%
barometer
mb
20260901215515 60 274 3.5 6.1 0.00 0.00 0.00 88 1013.9
20260901213515 60 282 2.6 6.1 0.00 0.00 0.00 88 1013.8
20260901210514 59 272 1.7 2.6 0.00 0.00 0.00 87 1013.5
20260901203515 60 292 2.6 4.3 0.00 0.01 0.00 85 1013.5
20260901201514 61 286 1.7 5.2 0.00 0.01 0.00 84 1013.5
20260901200514 61 287 3.5 7.8 0.00 0.01 0.00 84 1013.4
20260901193514 62 291 2.6 7.8 0.00 0.01 0.00 82 1013.2
20260901184516 64 278 6.1 10.4 0.00 0.01 0.00 86 1012.7
20260901183514 64 232 7.8 11.3 0.00 0.01 0.00 86 1012.6
20260901182515 64 253 7.0 12.2 0.00 0.01 0.00 86 1012.6
20260901180514 64 274 6.1 13.0 0.00 0.01 0.00 86 1012.5
20260901175514 64 244 4.3 10.4 0.00 0.01 0.00 85 1012.4
20260901174514 64 246 6.1 11.3 0.00 0.01 0.00 84 1012.2
20260901173515 65 262 5.2 13.0 0.00 0.01 0.00 84 1012.2
20260901165515 66 226 6.1 10.4 0.00 0.01 0.00 81 1012.0
20260901164516 66 253 7.8 12.2 0.00 0.01 0.00 80 1011.9
20260901162515 68 268 5.2 10.4 0.00 0.01 0.00 77 1011.9
20260901160514 68 278 8.7 12.2 0.00 0.01 0.00 80 1011.8
20260901155515 67 304 7.0 12.2 0.00 0.01 0.00 82 1011.7
20260901151514 69 316 11.3 14.8 0.00 0.02 0.00 79 1011.6
20260901143516 70 272 7.8 13.0 0.00 0.04 0.00 76 1011.5
20260901135514 70 253 9.6 13.0 0.00 0.04 0.00 74 1011.6
20260901134515 70 241 7.0 13.0 0.00 0.04 0.00 74 1011.6
20260901133515 70 322 6.1 8.7 0.00 0.04 0.00 74 1011.6
20260901124515 69 344 7.8 11.3 0.00 0.04 0.00 75 1011.5
20260901122515 68 286 6.1 11.3 0.00 0.04 0.00 79 1011.5
20260901115514 67 236 5.2 12.2 0.00 0.04 0.00 81 1011.6
20260901114514 66 311 6.1 10.4 0.00 0.04 0.00 81 1011.7
20260901113514 67 329 7.0 13.9 0.00 0.04 0.00 81 1011.6
20260901105515 66 304 6.1 10.4 0.00 0.05 0.00 86 1011.5
20260901103515 64 286 7.8 13.0 0.00 0.09 0.00 85 1011.5
20260901102515 65 337 7.0 13.0 0.00 0.12 0.00 85 1011.3
20260901101515 65 330 8.7 13.0 0.00 0.13 0.00 84 1011.4
20260901100514 65 275 8.7 13.9 0.00 0.13 0.00 85 1011.1
20260901093514 65 323 8.7 13.9 0.00 0.13 0.00 86 1011.0
20260901092515 65 335 5.2 13.9 0.00 0.13 0.00 88 1010.9
20260901090515 64 335 6.1 11.3 0.00 0.13 0.00 88 1010.7
20260901080514 63 296 6.1 12.2 0.00 0.13 0.00 90 1010.0
20260901075515 63 267 6.1 12.2 0.00 0.13 0.00 91 1009.9
20260901073514 63 288 6.1 11.3 0.00 0.13 0.00 91 1009.7
20260901070514 63 263 5.2 7.8 0.00 0.13 0.00 93 1009.5
20260901064516 62 303 4.3 8.7 0.00 0.13 0.00 94 1009.3
20260901062515 61 285 3.5 8.7 0.00 0.13 0.00 95 1009.1
20260901061515 61 288 1.7 6.1 0.00 0.13 0.00 95 1009.1
20260901055514 61 296 1.7 4.3 0.00 0.13 0.00 95 1009.0
20260901052515 59 336 2.6 6.1 0.00 0.13 0.00 95 1008.8
20260901050515 59 279 2.6 6.1 0.00 0.13 0.00 95 1008.6
20260901045515 59 270 2.6 7.8 0.00 0.13 0.00 95 1008.6
20260901043515 59 279 3.5 6.1 0.00 0.13 0.00 95 1008.4
20260901040515 59 267 1.7 5.2 0.00 0.13 0.00 95 1008.3
20260901035515 59 266 1.7 4.3 0.00 0.13 0.00 95 1008.2
20260901032515 59 230 3.5 5.2 0.00 0.13 0.00 95 1008.0
20260901031515 59 221 1.7 5.2 0.00 0.13 0.00 95 1008.0
20260901025514 59 249 1.7 6.1 0.00 0.13 0.00 95 1007.9
20260901024515 59 251 2.6 5.2 0.00 0.13 0.00 95 1007.9
20260901023517 59 247 2.6 6.1 0.00 0.13 0.00 95 1007.8
20260901021515 59 242 2.6 6.1 0.00 0.13 0.00 95 1007.8
20260901020515 59 225 5.2 7.0 0.00 0.13 0.00 95 1007.8
20260901015515 59 241 4.3 7.8 0.00 0.13 0.00 94 1007.7
20260901011515 59 219 2.6 5.2 0.00 0.13 0.00 94 1007.5
20260901010515 60 223 2.6 7.8 0.00 0.13 0.00 94 1007.5
20260901005515 60 217 5.2 8.7 0.00 0.13 0.00 94 1007.6
20260901003515 60 229 4.3 7.0 0.00 0.13 0.00 94 1007.5
20260901001516 60 229 4.3 7.8 0.00 0.13 0.00 94 1007.4
20260901000514 60 231 4.3 7.0 0.00 0.13 0.00 94 1007.3
20260831234516 60 229 5.2 8.7 0.00 0.13 0.00 94 1007.3
20260831233515 60 233 4.3 7.0 0.00 0.13 0.00 94 1007.3
20260831232515 60 224 1.7 5.2 0.00 0.13 0.00 94 1007.3
20260831231516 61 225 2.6 7.0 0.00 0.13 0.00 94 1007.3
20260831230516 61 230 3.5 7.0 0.00 0.13 0.00 93 1007.3
20260831224515 61 202 2.6 6.1 0.00 0.13 0.00 93 1007.3
20260831222515 61 230 2.6 7.8 0.00 0.13 0.00 94 1007.3
20260831220515 61 224 1.7 5.2 0.00 0.13 0.00 94 1007.4